Time,TemperatureF,DewpointF,PressureIn,WindDirection,WindDirectionDegrees,WindSpeedMPH,WindSpeedGustMPH,Humidity,HourlyPrecipIn,Conditions,Clouds,dailyrainin,SoftwareType,DateUTC
2013-07-03 00:01:00,65.0,64.0,30.01,ENE,71,2.0,5.0,95,0.00,,,0.20,,2013-07-03 04:01:00,
2013-07-03 00:11:00,65.0,64.0,30.00,ENE,71,2.0,8.0,95,0.00,,,0.20,,2013-07-03 04:11:00,
2013-07-03 00:33:00,65.0,64.0,30.00,ENE,65,3.0,7.0,95,0.00,,,0.20,,2013-07-03 04:33:00,
2013-07-03 00:43:00,65.0,64.0,30.00,ENE,71,4.0,7.0,95,0.00,,,0.20,,2013-07-03 04:43:00,
2013-07-03 00:52:00,65.0,64.0,30.01,East,87,4.0,7.0,95,0.00,,,0.20,,2013-07-03 04:52:00,
2013-07-03 01:11:00,64.0,63.0,30.00,ENE,63,2.0,7.0,95,0.00,,,0.20,,2013-07-03 05:11:00,
2013-07-03 01:38:00,64.0,63.0,30.01,ENE,69,0.0,3.0,96,0.00,,,0.20,,2013-07-03 05:38:00,
2013-07-03 01:47:00,64.0,63.0,30.01,ENE,67,1.0,5.0,96,0.00,,,0.20,,2013-07-03 05:47:00,
2013-07-03 02:01:00,64.0,63.0,30.02,ENE,71,0.0,3.0,96,0.00,,,0.20,,2013-07-03 06:01:00,
2013-07-03 02:07:00,64.0,63.0,30.03,ENE,71,0.0,2.0,96,0.04,,,0.24,,2013-07-03 06:07:00,
2013-07-03 02:14:00,64.0,63.0,30.03,ENE,71,0.0,2.0,96,0.04,,,0.24,,2013-07-03 06:14:00,
2013-07-03 02:25:00,64.0,63.0,30.00,East,96,5.0,7.0,96,0.09,,,0.28,,2013-07-03 06:25:00,
2013-07-03 02:39:00,64.0,63.0,30.00,East,96,5.0,7.0,96,0.09,,,0.28,,2013-07-03 06:39:00,
2013-07-03 02:49:00,64.0,63.0,30.00,East,88,4.0,8.0,96,0.09,,,0.28,,2013-07-03 06:49:00,
2013-07-03 02:58:00,64.0,63.0,30.00,ESE,113,5.0,8.0,96,0.09,,,0.28,,2013-07-03 06:58:00,
2013-07-03 03:05:00,64.0,63.0,29.99,ESE,105,6.0,9.0,97,0.04,,,0.28,,2013-07-03 07:05:00,
2013-07-03 03:27:00,64.0,63.0,29.98,East,96,5.0,9.0,97,0.00,,,0.28,,2013-07-03 07:27:00,
2013-07-03 03:37:00,64.0,63.0,29.98,East,95,6.0,10.0,97,0.00,,,0.28,,2013-07-03 07:37:00,
2013-07-03 03:47:00,64.0,63.0,29.98,East,95,6.0,10.0,97,0.00,,,0.28,,2013-07-03 07:47:00,
2013-07-03 04:09:00,64.0,63.0,29.98,East,83,6.0,9.0,97,0.00,,,0.28,,2013-07-03 08:09:00,
2013-07-03 04:16:00,64.0,63.0,29.98,East,83,6.0,9.0,97,0.00,,,0.28,,2013-07-03 08:16:00,
2013-07-03 04:37:00,64.0,63.0,29.99,ESE,107,4.0,8.0,97,0.00,,,0.28,,2013-07-03 08:37:00,
2013-07-03 04:45:00,64.0,63.0,29.99,ESE,107,4.0,8.0,97,0.00,,,0.28,,2013-07-03 08:45:00,
2013-07-03 04:57:00,64.0,63.0,29.99,ESE,109,4.0,7.0,97,0.00,,,0.28,,2013-07-03 08:57:00,
2013-07-03 05:16:00,65.0,64.0,29.99,ESE,117,3.0,5.0,97,0.00,,,0.28,,2013-07-03 09:16:00,
2013-07-03 05:25:00,65.0,64.0,29.99,SE,128,2.0,5.0,97,0.00,,,0.21,,2013-07-03 09:25:00,
2013-07-03 05:47:00,65.0,64.0,29.99,ESE,108,2.0,7.0,97,0.00,,,0.21,,2013-07-03 09:47:00,
2013-07-03 06:05:00,65.0,64.0,30.00,SE,132,3.0,6.0,97,0.00,,,0.21,,2013-07-03 10:05:00,
2013-07-03 06:16:00,65.0,64.0,30.00,SE,133,3.0,6.0,97,0.00,,,0.21,,2013-07-03 10:16:00,
2013-07-03 06:36:00,65.0,64.0,30.01,SE,128,3.0,5.0,97,0.00,,,0.21,,2013-07-03 10:36:00,
2013-07-03 06:45:00,65.0,64.0,30.01,SE,133,2.0,4.0,97,0.00,,,0.21,,2013-07-03 10:45:00,
2013-07-03 06:56:00,65.0,64.0,30.01,SE,132,1.0,3.0,97,0.00,,,0.21,,2013-07-03 10:56:00,
2013-07-03 07:06:00,65.0,64.0,30.01,SE,132,1.0,3.0,97,0.00,,,0.21,,2013-07-03 11:06:00,
2013-07-03 07:16:00,65.0,64.0,30.02,SE,132,0.0,3.0,97,0.00,,,0.21,,2013-07-03 11:16:00,
2013-07-03 07:38:00,65.0,64.0,30.02,SE,132,0.0,4.0,97,0.00,,,0.21,,2013-07-03 11:38:00,
2013-07-03 08:08:00,65.0,64.0,30.03,SE,132,0.0,2.0,97,0.00,,,0.21,,2013-07-03 12:08:00,
2013-07-03 08:16:00,65.0,64.0,30.03,SE,132,1.0,4.0,98,0.00,,,0.21,,2013-07-03 12:16:00,
2013-07-03 08:25:00,65.0,64.0,30.03,ESE,121,2.0,6.0,97,0.00,,,0.12,,2013-07-03 12:25:00,
2013-07-03 08:44:00,65.0,64.0,30.03,SE,126,2.0,6.0,97,0.00,,,0.12,,2013-07-03 12:44:00,
2013-07-03 08:58:00,65.0,64.0,30.04,SE,131,3.0,6.0,98,0.00,,,0.12,,2013-07-03 12:58:00,
2013-07-03 09:07:00,65.0,64.0,30.04,SE,131,3.0,6.0,98,0.00,,,0.12,,2013-07-03 13:07:00,
2013-07-03 09:17:00,66.0,65.0,30.05,South,169,1.0,6.0,98,0.00,,,0.12,,2013-07-03 13:17:00,
2013-07-03 09:47:00,67.0,66.0,30.06,SE,146,2.0,6.0,97,0.00,,,0.10,,2013-07-03 13:47:00,
2013-07-03 09:55:00,69.0,68.0,30.06,SE,132,3.0,6.0,97,0.00,,,0.10,,2013-07-03 13:55:00,
2013-07-03 10:06:00,69.0,68.0,30.06,SE,132,3.0,6.0,97,0.00,,,0.10,,2013-07-03 14:06:00,
2013-07-03 10:15:00,69.0,68.0,30.06,ESE,114,4.0,7.0,95,0.00,,,0.10,,2013-07-03 14:15:00,
2013-07-03 10:37:00,71.0,69.0,30.06,ESE,117,1.0,3.0,93,0.00,,,0.10,,2013-07-03 14:37:00,
2013-07-03 10:46:00,72.0,69.0,30.06,SSW,207,1.0,6.0,90,0.00,,,0.10,,2013-07-03 14:46:00,
2013-07-03 10:55:00,74.0,70.0,30.06,SSW,194,1.0,4.0,87,0.00,,,0.10,,2013-07-03 14:55:00,
2013-07-03 11:05:00,74.0,68.0,30.06,SSW,207,2.0,6.0,83,0.00,,,0.10,,2013-07-03 15:05:00,
2013-07-03 11:26:00,76.0,68.0,30.06,SW,225,3.0,8.0,77,0.00,,,0.10,,2013-07-03 15:26:00,
2013-07-03 11:37:00,76.0,68.0,30.06,SW,225,3.0,8.0,77,0.00,,,0.10,,2013-07-03 15:37:00,
2013-07-03 11:47:00,76.0,68.0,30.06,SSW,195,4.0,10.0,76,0.00,,,0.10,,2013-07-03 15:47:00,
2013-07-03 11:57:00,77.0,69.0,30.06,SSW,194,4.0,13.0,77,0.00,,,0.10,,2013-07-03 15:57:00,
2013-07-03 12:07:00,77.0,69.0,30.06,SSW,194,4.0,13.0,77,0.00,,,0.10,,2013-07-03 16:07:00,
2013-07-03 12:17:00,77.0,68.0,30.06,SW,221,5.0,10.0,74,0.00,,,0.10,,2013-07-03 16:17:00,
2013-07-03 12:23:00,77.0,68.0,30.06,SW,221,5.0,10.0,74,0.00,,,0.10,,2013-07-03 16:23:00,
2013-07-03 12:46:00,77.0,68.0,30.05,SSW,207,1.0,9.0,74,0.00,,,0.10,,2013-07-03 16:46:00,
2013-07-03 13:08:00,77.0,67.0,30.05,SW,222,2.0,7.0,71,0.00,,,0.10,,2013-07-03 17:08:00,
2013-07-03 13:40:00,77.0,68.0,30.05,WSW,248,2.0,11.0,74,0.00,,,0.10,,2013-07-03 17:40:00,
2013-07-03 13:47:00,78.0,68.0,30.05,WSW,248,5.0,11.0,71,0.00,,,0.10,,2013-07-03 17:47:00,
2013-07-03 13:56:00,78.0,67.0,30.04,SW,214,3.0,8.0,69,0.00,,,0.10,,2013-07-03 17:56:00,
2013-07-03 14:07:00,78.0,67.0,30.04,SW,214,3.0,8.0,69,0.00,,,0.10,,2013-07-03 18:07:00,
2013-07-03 14:15:00,79.0,67.0,30.03,SSW,211,4.0,10.0,67,0.00,,,0.10,,2013-07-03 18:15:00,
2013-07-03 14:36:00,79.0,68.0,30.03,South,184,2.0,10.0,68,0.00,,,0.10,,2013-07-03 18:36:00,
2013-07-03 14:45:00,80.0,68.0,30.04,SW,214,5.0,9.0,66,0.00,,,0.10,,2013-07-03 18:45:00,
2013-07-03 14:59:00,80.0,69.0,30.03,SSE,168,2.0,8.0,70,0.00,,,0.10,,2013-07-03 18:59:00,
2013-07-03 15:04:00,80.0,69.0,30.03,SSE,168,2.0,8.0,70,0.00,,,0.10,,2013-07-03 19:04:00,
2013-07-03 15:16:00,80.0,68.0,30.04,South,180,3.0,7.0,67,0.00,,,0.10,,2013-07-03 19:16:00,
2013-07-03 15:30:00,80.0,67.0,30.03,SSW,207,4.0,11.0,65,0.00,,,0.10,,2013-07-03 19:30:00,
2013-07-03 15:37:00,80.0,67.0,30.03,SSW,207,4.0,11.0,65,0.00,,,0.10,,2013-07-03 19:37:00,
2013-07-03 16:14:00,81.0,69.0,30.02,SSW,196,2.0,11.0,66,0.00,,,0.10,,2013-07-03 20:14:00,
2013-07-03 16:25:00,81.0,68.0,30.02,SW,217,5.0,14.0,64,0.00,,,0.10,,2013-07-03 20:25:00,
2013-07-03 16:37:00,80.0,67.0,30.02,SSW,194,4.0,9.0,65,0.00,,,0.10,,2013-07-03 20:37:00,
2013-07-03 16:56:00,81.0,67.0,30.02,SW,229,5.0,12.0,63,0.00,,,0.10,,2013-07-03 20:56:00,
2013-07-03 17:06:00,81.0,67.0,30.02,SW,229,5.0,12.0,63,0.00,,,0.10,,2013-07-03 21:06:00,
2013-07-03 17:13:00,81.0,69.0,30.02,WSW,243,4.0,9.0,67,0.00,,,0.10,,2013-07-03 21:13:00,
2013-07-03 17:44:00,80.0,68.0,30.01,WSW,247,3.0,8.0,68,0.00,,,0.10,,2013-07-03 21:44:00,
2013-07-03 17:55:00,80.0,68.0,30.01,SSW,196,3.0,9.0,68,0.00,,,0.10,,2013-07-03 21:55:00,
2013-07-03 18:06:00,80.0,68.0,30.01,SSW,196,3.0,9.0,68,0.00,,,0.10,,2013-07-03 22:06:00,
2013-07-03 18:15:00,80.0,67.0,30.01,SSW,213,5.0,9.0,65,0.00,,,0.10,,2013-07-03 22:15:00,
2013-07-03 18:26:00,79.0,67.0,30.01,SW,236,3.0,7.0,67,0.00,,,0.10,,2013-07-03 22:26:00,
2013-07-03 18:37:00,79.0,67.0,30.01,SW,236,3.0,7.0,67,0.00,,,0.10,,2013-07-03 22:37:00,
2013-07-03 18:45:00,79.0,68.0,30.01,WSW,258,2.0,5.0,70,0.00,,,0.10,,2013-07-03 22:45:00,
2013-07-03 18:54:00,78.0,67.0,30.01,West,259,3.0,6.0,70,0.00,,,0.10,,2013-07-03 22:54:00,
2013-07-03 19:05:00,78.0,67.0,30.01,West,259,3.0,6.0,70,0.00,,,0.10,,2013-07-03 23:05:00,
2013-07-03 19:14:00,79.0,68.0,30.01,SW,236,1.0,4.0,70,0.00,,,0.10,,2013-07-03 23:14:00,
2013-07-03 19:39:00,78.0,67.0,30.01,WSW,238,2.0,5.0,68,0.00,,,0.10,,2013-07-03 23:39:00,
2013-07-03 19:45:00,78.0,67.0,30.01,WSW,238,2.0,5.0,68,0.00,,,0.10,,2013-07-03 23:45:00,
2013-07-03 20:04:00,78.0,67.0,30.01,SSW,202,0.0,6.0,70,0.00,,,0.10,,2013-07-04 00:04:00,
2013-07-03 20:16:00,78.0,67.0,30.01,SSW,202,0.0,6.0,70,0.00,,,0.10,,2013-07-04 00:16:00,
2013-07-03 20:25:00,77.0,66.0,30.01,SW,215,0.0,4.0,70,0.00,,,0.09,,2013-07-04 00:25:00,
2013-07-03 20:37:00,77.0,68.0,30.01,SW,215,0.0,3.0,74,0.00,,,0.09,,2013-07-04 00:37:00,
2013-07-03 20:48:00,77.0,68.0,30.01,SW,215,0.0,3.0,74,0.00,,,0.09,,2013-07-04 00:48:00,
2013-07-03 20:55:00,76.0,69.0,30.02,SW,215,0.0,0.0,78,0.00,,,0.09,,2013-07-04 00:55:00,
2013-07-03 21:04:00,75.0,69.0,30.02,SW,215,0.0,1.0,82,0.00,,,0.09,,2013-07-04 01:04:00,
2013-07-03 21:15:00,75.0,69.0,30.02,SW,215,0.0,1.0,82,0.00,,,0.09,,2013-07-04 01:15:00,
2013-07-03 21:38:00,73.0,68.0,30.03,South,175,0.0,3.0,84,0.00,,,0.09,,2013-07-04 01:38:00,
2013-07-03 21:43:00,73.0,68.0,30.03,South,175,0.0,3.0,84,0.00,,,0.09,,2013-07-04 01:43:00,
2013-07-03 22:07:00,73.0,68.0,30.03,South,175,0.0,1.0,84,0.00,,,0.09,,2013-07-04 02:07:00,
2013-07-03 22:15:00,72.0,68.0,30.03,South,175,0.0,1.0,86,0.00,,,0.09,,2013-07-04 02:15:00,
2013-07-03 22:39:00,72.0,68.0,30.03,South,175,0.0,1.0,86,0.00,,,0.09,,2013-07-04 02:39:00,
2013-07-03 22:48:00,71.0,67.0,30.04,South,175,0.0,1.0,87,0.00,,,0.09,,2013-07-04 02:48:00,
2013-07-03 23:05:00,71.0,67.0,30.05,SSE,148,4.0,7.0,87,0.04,,,0.13,,2013-07-04 03:05:00,
2013-07-03 23:14:00,70.0,67.0,30.04,SE,138,0.0,3.0,89,0.04,,,0.13,,2013-07-04 03:14:00,
2013-07-03 23:27:00,69.0,66.0,30.04,SE,138,0.0,0.0,89,0.04,,,0.13,,2013-07-04 03:27:00,
2013-07-03 23:35:00,69.0,66.0,30.04,SE,138,0.0,0.0,89,0.04,,,0.13,,2013-07-04 03:35:00,
2013-07-03 23:46:00,69.0,66.0,30.04,SE,138,0.0,0.0,90,0.05,,,0.14,,2013-07-04 03:46:00,
2013-07-03 23:56:00,68.0,65.0,30.04,SE,138,0.0,0.0,90,0.01,,,0.14,,2013-07-04 03:56:00,